User: anonymous   Login
Location: Arbon
(43.0005°N, 0.7472°E)
Time: 20:37:41
(UTC+00:00)
Language:

Cosmos 2344 - Orbit

View from above orbital plane
View from above orbital plane
View from above satellite
View from above satellite

Ground track
Ground track

The orbit data is extracted from the following two-line orbital elements,

1 24827U 97028A   20304.26926310 -.00000162 +00000-0 -14199-2 0  9994
2 24827 063.3166 050.6103 1029186 043.6572 343.8899 11.07907754946766
Epoch (UTC): 30 October 2020 06:27:44
Eccentricity: 0.1029186
inclination: 63.3166°
perigee height: 1247 km
apogee height: 2996 km
right ascension of ascending node: 50.6103°
argument of perigee: 43.6572°
revolutions per day: 11.07907754
mean anomaly at epoch: 343.8899°
orbit number at epoch: 94676

The dashed part of the orbit path shows where the satellite is in the earth's shadow,  

DLR